Regional Weather Roundup
Issued by NWS

Home | Current Version | Previous Version | Text Only | Print | Product List | Glossary On
Versions: 1 2 3 4 5 6 7 8 9 10 11 12 13 14 15 16 17 18 19 20 21 22 23 24 25 26 27 28 29 30 31 32 33 34 35 36 37 38 39 40 41 42 43 44 45 46 47 48 49 50
000
ASCA44 KEWX 291220
RWRMX

LATIN AMERICA AND CARIBBEAN REGIONAL WEATHER ROUNDUP
NATIONAL WEATHER SERVICE AUSTIN/SAN ANTONIO TX
700 AM CDT TUE JUL 29 2014

NOTE: "FAIR" INDICATED FEW OR NO CLOUDS BELOW 12,000 FEET WITH NO
SIGNIFICANT WEATHER AND/OR OBSTRUCTIONS TO VISIBILITY.

BAJA CALIFORNIA

CITY           SKY/WX    TMP DP  RH WIND       PRES   REMARKS
LA PAZ         PTCLDY    81  75  83 S8        29.95
S.J. DEL CABO  MOCLDY    82  72  69 N9        29.94
TIJUANA        PTCLDY    70  63  78 CALM      30.03F

NORTHWESTERN MEXICO

CITY           SKY/WX    TMP DP  RH WIND       PRES   REMARKS
DURANGO        CLEAR     54  52  94 NW3       30.34S
HERMOSILLO     PTCLDY    84  68  58 CALM      29.98

NORTHEASTERN MEXICO

CITY           SKY/WX    TMP DP  RH WIND       PRES   REMARKS
CHIHUAHUA      PTCLDY    66  52  59 S3        30.22
MATAMOROS      CLEAR     75  75 100 CALM      30.06  FOG
MONTERREY      CLEAR     72  66  83 CALM      30.07R
NUEVO LAREDO   CLEAR     79  72  78 SE7       30.04
REYNOSA        CLEAR     73  70  88 CALM      30.04
SALTILLO       CLEAR     66  54  63 SE6       30.28R
TORREON        PTCLDY    72  48  43 CALM      30.17R
CD. VICTORIA   CLEAR     75  70  83 S12       30.05

WESTERN MEXICO

CITY           SKY/WX    TMP DP  RH WIND       PRES   REMARKS
AGUASCALIENTES CLEAR     54  50  87 NE9       30.35
DEL BAJIO      PTCLDY    55  54  94 CALM      30.36R
GUADALAJARA    PTCLDY    55  54  94 SW3       30.25
MAZATLAN       MOCLDY    79  72  78 N8        29.88R
P. VALLARTA    MOCLDY    77  72  83 CALM      29.90R
URUAPAN        MOCLDY    59  59 100 CALM      30.23
ZACATECAS      CLEAR     48  41  76 CALM      30.39R

CENTRAL MEXICO

CITY           SKY/WX    TMP DP  RH WIND       PRES   REMARKS
CUERNAVACA     PTCLDY    61  54  77 MISG      30.24
MEXICO CITY    MOCLDY    54  50  87 NE5       30.42R
MORELIA        MOCLDY    50  50 100 CALM      30.32
POZA RICA      PTCLDY    75  73  94 CALM      30.06  FOG
PUEBLA         CLEAR     46  45  93 NW5       30.43R WCI  44
QUERETARO      PTCLDY    54  50  87 CALM      30.38S
S. LUIS POTOSI PTCLDY    52  48  87 CALM      30.35S
TAMPICO        PTCLDY    79  75  89 CALM      30.05R
TOLUCA         PTCLDY    46  43  87 CALM      30.47R

SOUTHERN MEXICO

CITY           SKY/WX    TMP DP  RH WIND       PRES   REMARKS
ACAPULCO       PTCLDY    79  75  89 E3        29.87R
B. DE HUATULCO MOCLDY    75  68  78 CALM      29.93
OAXACA         MOCLDY    57  52  82 N6        30.31R
P. ESCONDIDO   PTCLDY    75  72  88 E15       30.01
VERACRUZ       PTCLDY    70  68  94 CALM      30.05R
ZIHUATANEJO    PTCLDY    75  68  78 CALM      29.87

YUCATAN PENINSULA

CITY           SKY/WX    TMP DP  RH WIND       PRES   REMARKS
CAMPECHE       MOCLDY    75  73  94 CALM      29.99R
CANCUN         MOCLDY    75  73  94 CALM      30.03R
CHETUMAL       PTCLDY    82  75  78 CALM      29.99
CD. DEL CARMEN MOCLDY    79  75  89 CALM      30.00
COZUMEL        PTCLDY    72  72 100 CALM      30.03R
MERIDA         MOCLDY    77  77 100 E5        30.03R FOG
MINATITLAN     CLOUDY    77  72  83 CALM      29.98
TAPACHULA      MOCLDY    75  75 100 CALM      29.90R
TUX. GUTIERREZ MOCLDY    70  68  94 S6        30.01S
VILLAHERMOSA   MOCLDY    73  72  94 CALM      29.99S

CENTRAL AMERICA

CITY           SKY/WX    TMP DP  RH WIND       PRES   REMARKS
BELIZE CITY    PTCLDY    81  77  89 E2        29.99S
MANAGUA        MOSUNNY   75  73  94 SE7       29.89S

CARIBBEAN

CITY           SKY/WX    TMP DP  RH WIND       PRES   REMARKS
ARUBA          MOSUNNY   82  75  78 E17G29    29.92S
CURACAO        MOSUNNY   84  75  74 E15       29.97S HX  92
KINGSTON       MOSUNNY   82  75  78 W5        29.97S
NASSAU         MOSUNNY   84  77  79 S5        30.02R HX  94
SAN JUAN       MOSUNNY   82  73  74 E6        30.04S
SANTO DOMINGO  MOSUNNY   77  73  88 NE5       30.00S
ST. CROIX      MOSUNNY   84  73  70 SE10      30.05R HX  91
ST. KITTS      MOSUNNY   82  73  74 NE9       30.03S
ST. MAARTEN    MOSUNNY   82  73  74 SE10      30.03S
ST. THOMAS     MOSUNNY   82  72  69 E9        30.04S

$$




USA.gov is the U.S. government's official web portal to all federal, state and local government web resources and services.